Weather History for Omaha Millard, NE

Change the Weather History Date:

Saturday, October 1, 2011

  Actual Average (KOMA) Record (KOMA)
Temperature  
Mean Temperature 55 °F 59 °F  
Max Temperature 71 °F 71 °F 94 °F (1976)
Min Temperature 39 °F 47 °F 29 °F (1974)
Degree Days  
Heating Degree Days 10 7  
Month to date heating degree days 7  
Since 1 July heating degree days 110  
Cooling Degree Days 0 1  
Month to date cooling degree days 1  
Year to date cooling degree days 1098  
Growing Degree Days 5 (Base 50)    
Moisture  
Dew Point 36 °F    
Average Humidity 56    
Maximum Humidity 93    
Minimum Humidity 22    
Precipitation  
Precipitation 0.00 in 0.08 in 1.86 in (1950)
Month to date precipitation 0.08  
Year to date precipitation 25.87  
Snow  
Snow 0.00 in 0.00 in - ()
Month to date snowfall 0.0  
Since 1 July snowfall 0.0  
Snow Depth -    
Sea Level Pressure  
Sea Level Pressure 30.25 in    
Wind  
Wind Speed 3 mph (SE)    
Max Wind Speed 13 mph    
Max Gust Speed -    
Visibility 9 miles    
Events      
T = Trace of Precipitation, MM = Missing Value Source: NWS Daily Summary

Daily Weather History Graph

Daily Weather History Graph

Search for Another Location

Airport:

Trip Planner

Search our weather history database for the weather conditions in past years. The results will help you decide how hot, cold, wet, or windy it might be!

Date:

Astronomy

Oct. 01, 2011 Rise Set
Actual Time 7:20 AM CDT 7:06 PM CDT
Civil Twilight 6:53 AM CDT 7:34 PM CDT
Nautical Twilight 6:21 AM CDT 8:06 PM CDT
Astronomical Twilight 5:49 AM CDT 8:38 PM CDT
Moon 12:31 PM CDT 10:01 PM CDT
Length of Visible Light 12h 40m
Length of Day
11h 45m
Waxing Crescent, 24% of the Moon is Illuminated
Oct 1
Waxing Crescent
Oct 3
First Quarter
Oct 11
Full
Oct 19
Last Quarter
Oct 26
New

Hourly Weather History & Observations

Time (CDT) Temp. Windchill Dew Point Humidity Pressure Visibility Wind Dir Wind Speed Gust Speed Precip Events Conditions
12:15 AM 44.6 °F - 41.0 °F 87% 30.22 in 10.0 mi Calm Calm - N/A   Clear
12:35 AM 44.6 °F - 41.0 °F 87% 30.22 in 10.0 mi Calm Calm - N/A   Clear
12:55 AM 44.6 °F - 41.0 °F 87% 30.22 in 10.0 mi Calm Calm - N/A   Clear
1:15 AM 44.6 °F - 41.0 °F 87% 30.23 in 10.0 mi Calm Calm - N/A   Clear
1:35 AM 44.6 °F - 41.0 °F 87% 30.23 in 10.0 mi Calm Calm - N/A   Clear
1:55 AM 42.8 °F - 41.0 °F 93% 30.23 in 10.0 mi Calm Calm - N/A   Clear
2:15 AM 42.8 °F - 41.0 °F 93% 30.24 in 10.0 mi Calm Calm - N/A   Clear
2:35 AM 42.8 °F - 41.0 °F 93% 30.24 in 5.0 mi Calm Calm - N/A   Clear
3:15 AM 42.8 °F - 39.2 °F 87% 30.24 in 7.0 mi Calm Calm - N/A   Clear
3:35 AM 42.8 °F - 39.2 °F 87% 30.24 in 10.0 mi Calm Calm - N/A   Clear
3:55 AM 41.0 °F - 39.2 °F 93% 30.24 in 7.0 mi Calm Calm - N/A   Clear
4:15 AM 41.0 °F - 37.4 °F 87% 30.24 in 4.0 mi Calm Calm - N/A   Clear
4:35 AM 41.0 °F - 37.4 °F 87% 30.25 in 5.0 mi Calm Calm - N/A   Clear
4:55 AM 41.0 °F - 37.4 °F 87% 30.25 in 3.0 mi Calm Calm - N/A   Clear
5:15 AM 41.0 °F - 37.4 °F 87% 30.26 in 1.2 mi Calm Calm - N/A   Mist
5:35 AM 41.0 °F - 37.4 °F 87% 30.26 in 10.0 mi Calm Calm - N/A   Clear
5:55 AM 39.2 °F - 37.4 °F 93% 30.26 in 10.0 mi Calm Calm - N/A   Clear
6:15 AM 41.0 °F - 37.4 °F 87% 30.26 in 10.0 mi Calm Calm - N/A   Clear
6:35 AM 39.2 °F - 37.4 °F 93% 30.28 in 10.0 mi Calm Calm - N/A   Clear
6:55 AM 41.0 °F - 37.4 °F 87% 30.29 in 10.0 mi Calm Calm - N/A   Clear
7:15 AM 39.2 °F - 37.4 °F 93% 30.29 in 10.0 mi Calm Calm - N/A   Clear
7:35 AM 41.0 °F - 37.4 °F 87% 30.30 in 10.0 mi Calm Calm - N/A   Clear
7:55 AM 41.0 °F - 37.4 °F 87% 30.30 in 10.0 mi Calm Calm - N/A   Clear
8:15 AM 41.0 °F - 37.4 °F 87% 30.31 in 10.0 mi Calm Calm - N/A   Clear
8:35 AM 44.6 °F 43.1 °F 37.4 °F 76% 30.31 in 10.0 mi SE 3.5 mph - N/A   Clear
8:55 AM 46.4 °F 45.2 °F 41.0 °F 81% 30.31 in 10.0 mi SE 3.5 mph - N/A   Clear
9:15 AM 50.0 °F - 41.0 °F 71% 30.31 in 10.0 mi SE 5.8 mph - N/A   Clear
9:35 AM 51.8 °F - 39.2 °F 62% 30.31 in 10.0 mi SE 6.9 mph - N/A   Clear
9:55 AM 55.4 °F - 37.4 °F 51% 30.32 in 10.0 mi SE 8.1 mph - N/A   Clear
10:15 AM 55.4 °F - 37.4 °F 51% 30.32 in 10.0 mi SE 9.2 mph - N/A   Clear
10:35 AM 59.0 °F - 37.4 °F 45% 30.32 in 10.0 mi SSE 8.1 mph - N/A   Clear
10:55 AM 59.0 °F - 35.6 °F 42% 30.32 in 10.0 mi South 8.1 mph - N/A   Clear
11:15 AM 60.8 °F - 35.6 °F 39% 30.32 in 10.0 mi SSE 9.2 mph - N/A   Clear
11:35 AM 62.6 °F - 35.6 °F 37% 30.31 in 10.0 mi SSE 9.2 mph - N/A   Clear
11:55 AM 64.4 °F - 33.8 °F 32% 30.30 in 10.0 mi SSE 8.1 mph - N/A   Clear
12:15 PM 64.4 °F - 33.8 °F 32% 30.29 in 10.0 mi SSE 9.2 mph - N/A   Clear
12:35 PM 66.2 °F - 33.8 °F 30% 30.28 in 10.0 mi SSE 9.2 mph - N/A   Clear
1:15 PM 68.0 °F - 32.0 °F 26% 30.28 in 10.0 mi SSE 8.1 mph - N/A   Clear
1:35 PM 68.0 °F - 32.0 °F 26% 30.28 in 10.0 mi SE 5.8 mph - N/A   Clear
1:55 PM 69.8 °F - 32.0 °F 25% 30.26 in 10.0 mi SE 5.8 mph - N/A   Clear
2:15 PM 69.8 °F - 32.0 °F 25% 30.25 in 10.0 mi SSE 10.4 mph - N/A   Clear
2:35 PM 69.8 °F - 32.0 °F 25% 30.24 in 10.0 mi SE 8.1 mph - N/A   Clear
2:55 PM 69.8 °F - 32.0 °F 25% 30.23 in 10.0 mi SE 12.7 mph - N/A   Clear
3:15 PM 71.6 °F - 32.0 °F 23% 30.23 in 10.0 mi ESE 8.1 mph - N/A   Clear
3:35 PM 71.6 °F - 32.0 °F 23% 30.23 in 10.0 mi ESE 6.9 mph - N/A   Clear
3:55 PM 71.6 °F - 32.0 °F 23% 30.22 in 10.0 mi SE 10.4 mph - N/A   Clear
4:15 PM 71.6 °F - 32.0 °F 23% 30.22 in 10.0 mi SSE 10.4 mph - N/A   Clear
4:35 PM 71.6 °F - 30.2 °F 22% 30.21 in 10.0 mi SE 9.2 mph - N/A   Clear
4:55 PM 71.6 °F - 30.2 °F 22% 30.21 in 10.0 mi SE 8.1 mph - N/A   Clear
5:15 PM 71.6 °F - 30.2 °F 22% 30.21 in 10.0 mi SE 5.8 mph - N/A   Clear
5:35 PM 71.6 °F - 30.2 °F 22% 30.21 in 10.0 mi SE 9.2 mph - N/A   Clear
5:55 PM 69.8 °F - 32.0 °F 25% 30.20 in 10.0 mi SE 6.9 mph - N/A   Clear
6:15 PM 69.8 °F - 32.0 °F 25% 30.20 in 10.0 mi SE 6.9 mph - N/A   Clear
6:35 PM 68.0 °F - 32.0 °F 26% 30.20 in 10.0 mi SE 8.1 mph - N/A   Clear
6:55 PM 64.4 °F - 32.0 °F 30% 30.19 in 10.0 mi NE 4.6 mph - N/A   Clear
7:15 PM 62.6 °F - 32.0 °F 32% 30.19 in 10.0 mi SE 3.5 mph - N/A   Clear
7:35 PM 60.8 °F - 33.8 °F 36% 30.19 in 10.0 mi Calm Calm - N/A   Clear
7:55 PM 60.8 °F - 33.8 °F 36% 30.19 in 10.0 mi Calm Calm - N/A   Clear
8:15 PM 59.0 °F - 35.6 °F 42% 30.19 in 10.0 mi Calm Calm - N/A   Clear
8:35 PM 59.0 °F - 35.6 °F 42% 30.20 in 10.0 mi SE 3.5 mph - N/A   Clear
8:55 PM 57.2 °F - 35.6 °F 44% 30.20 in 10.0 mi Calm Calm - N/A   Clear
9:15 PM 55.4 °F - 37.4 °F 51% 30.21 in 10.0 mi Calm Calm - N/A   Clear
9:35 PM 53.6 °F - 37.4 °F 54% 30.21 in 10.0 mi Calm Calm - N/A   Clear
9:55 PM 53.6 °F - 39.2 °F 58% 30.21 in 10.0 mi Calm Calm - N/A   Clear
10:15 PM 51.8 °F - 39.2 °F 62% 30.21 in 10.0 mi Calm Calm - N/A   Clear
10:35 PM 50.0 °F - 41.0 °F 71% 30.21 in 10.0 mi Calm Calm - N/A   Clear
10:55 PM 50.0 °F - 41.0 °F 71% 30.21 in 10.0 mi Calm Calm - N/A   Clear
11:15 PM 50.0 °F - 41.0 °F 71% 30.21 in 10.0 mi Calm Calm - N/A   Clear
11:35 PM 50.0 °F - 41.0 °F 71% 30.21 in 10.0 mi Calm Calm - N/A   Clear
11:55 PM 50.0 °F - 41.0 °F 71% 30.21 in 10.0 mi Calm Calm - N/A   Clear